SL-8 DEB, 1634

Orbit data source: Space-Track

SL-8 DEB, 1634 is space debris in LEO originally from a launch on Mon, 15 Mar 1965 UTC launched from the Tyuratam Missile And Space Complex (TTMTR). Debris objects in space refer to the collection of defunct objects orbiting the Earth. Examples of debris include non-operational satellites, rocket bodies, and fragments generated from explosions, collisions, or faulty payload assembly.

Loading next visibility...
Identifier
1634, 1965-020ED
Orbit
LEO
Country
Flag of CISCIS
Related business
Manufacturer
Unknown
Mission
Spacecraft
Bus & Motor
Unknown
Mass
Unknown
Launch date (UTC)
1965-03-15 (61 years ago)
Launch vehicle
Unknown
Launch site
Tyuratam Missile And Space Complex (TTMTR)
Object type
Payload
Rocket body
Debris
Shape & HBR
Unknown
Radar Cross Section
Small (<0.1 m²)

Expand to show TLE details & history
Last TLE update: 2 days ago

TLE from 2 days ago
0 SL-8 DEB
1 01634U 65020ED  25258.88142121  .00000031  00000-0  23042-3 0  9994
2 01634  56.1521  90.7385 0856562  71.0490 298.1212 12.48468781728226
Epoch: 2025-09-15T21:09Z
TLE epoch observation values (Epoch: 2025-09-15T21:09:14.792Z)
Latitude
-0.00006°
Longitude
138.34712°
Altitude
1,202.525 km
Speed
7.377 km/s
True Right ascension
06h 02m 57s
True Declination
0° 00' 00"
Sunlit
Object was in daylight at epoch
Visualization orbit readout
Latitude
Unknown
Longitude
Unknown
Altitude
Unknown
Speed
Unknown
Apparent Right ascension
Unknown
Apparent Declination
Unknown
Sunlit
N/A
Visualization observer readout
Local Sidereal Time
03:03:19
Azimuth
Unknown
Elevation
Unknown
Doppler factor
Unknown
Orbital elements
Apogee altitude
2,143.017 km
Perigee altitude
798.412 km
Semi-major axis
7,848.851 km
Eccentricity
0.08566
Inclination
56.1521°
RAAN
90.7385°
Arg. of periapsis
71.049°
True anomaly
289.04371°
Mean anomaly
298.1212°
Eccentric anomaly
293.62478°
Mean motion
3.12129 °/min
Orbital period
115.34 mins
BSTAR
0.00023042
Loading maneuver chart data...
Computing Atmospheric mass density...
Loading historical data...
Loading historical data...
Loading historical data...
Loading historical data...
Loading historical data...
Loading historical data...
Loading historical data...

Documentation

Showing up to 5 results
|